Regional Weather Roundup
Issued by NWS Portland, ME

Current Version | Previous Version | Text Only | Print | Product List | Glossary Off
Versions: 1 2 3 4 5 6 7 8 9 10 11 12 13 14 15 16 17 18 19 20 21 22 23 24 25 26 27 28 29 30 31 32 33 34 35 36 37 38 39 40 41 42 43 44 45 46 47 48 49 50
593 ASUS41 KGYX 250510 RWRGYX WEATHER ROUNDUP FOR MAINE AND NEW HAMPSHIRE NATIONAL WEATHER SERVICE GRAY ME 100 AM EDT SUN JUN 25 2017 MEZ002-005-006-010-012-015-018-020-021-024-026-027-029-250600- MAINE CITY SKY/WX TMP DP RH WIND PRES REMARKS PORTLAND CLEAR 69 52 54 W7 29.79R SANFORD CLEAR 66 53 63 SW7 29.82R BAR HARBOR PTCLDY 65 56 72 CALM 29.76R WISCASSET PTCLDY 60 58 92 CALM 29.79R ROCKLAND PTCLDY 62 58 86 W3 29.77R FRYEBURG CLEAR 59 55 87 NW5 29.82R AUGUSTA CLEAR 68 53 58 W7 29.79R WATERVILLE CLEAR 65 54 67 NW3 29.76R BANGOR CLEAR 60 55 83 SW3 29.75S GREENVILLE N/A 54 53 97 CALM 29.76R MILLINOCKET PTCLDY 61 57 87 NW5 29.75R HOULTON PTCLDY 61 56 83 SW5 29.69R PRESQUE ISLE MOCLDY 60 55 83 W6 29.70R FRENCHVILLE CLEAR 57 49 74 NW9 29.68R CARIBOU PTCLDY 58 53 84 W6 29.68R $$ NHZ002-005-008-009-011-012-014-250600- NEW HAMPSHIRE CITY SKY/WX TMP DP RH WIND PRES REMARKS PORTSMOUTH PTCLDY 71 54 55 W6 29.81R ROCHESTER CLEAR 69 50 50 VRB5 29.82R NASHUA CLOUDY 69 56 62 CALM 29.86R MANCHESTER CLEAR 72 51 47 SW8 29.84R CONCORD PTCLDY 71 52 50 W9 29.84R LACONIA PTCLDY N/A N/A N/A W7 29.84S PLYMOUTH FAIR 58 53 86 CALM 29.84S BERLIN CLEAR 64 54 69 W3 29.84R WHITEFIELD PTCLDY 58 52 80 S3 29.85R JAFFREY CLOUDY 68 56 65 SW5 29.90R KEENE CLOUDY 63 59 87 S3 29.88S LEBANON CLEAR 59 51 75 S6 29.86R MT WASHINGTON FOG 43 43 100 W48G56 N/A VSB 0 $$ VTZ005-007-008-250600- VERMONT CITY SKY/WX TMP DP RH WIND PRES REMARKS ST JOHNSBURY N/A 59 56 89 MISG 29.83R MONTPELIER CLEAR 63 51 65 W7 29.90R BURLINGTON PTCLDY 65 53 65 SW5 29.85S $$ MAZ007-012-024-CTZ003-RIZ002-NYZ038-NYZ072-250600- SOUTHERN NEW ENGLAND AND NY CITY SKY/WX TMP DP RH WIND PRES REMARKS BOSTON PTCLDY 74 54 49 W12 29.85R WORCESTER CLOUDY 67 52 58 W10 29.91R NANTUCKET N/A 67 60 78 W12 29.87R PROVIDENCE CLEAR 67 58 72 W6 29.87S HARTFORD CLOUDY 70 57 63 CALM 29.90S ALBANY PTCLDY 65 54 67 W5 29.92R NEW YORK CITY PTCLDY 75 62 64 NW8 29.91R $$ ANZ081-ANZ082-ANZ150-NHZ014-MEZ023>029-250600- COASTAL MARINE OBSERVATIONS STATION/POSITION TIME TEMP WIND PRES WAVE AIR SEA DIR/SP/G HT/PER (UTC) (F) (DEG/KT/KT) (MB) (FT/S) MATINICUS ROCK 0500 60 280/ 16/ 17 1007.8R ISLE OF SHOALS 0500 70 240/ 16/ 17 1009.6R JEFFREYS LEDGE 0406 59 N/A 3/ 6 CASHES LEDGE BUO 0350 64 60 1008.1 3/ 6 GEORGES BANK BUO 0350 57 52 1009.9 8/ 8 $$ .............KEY.............. WCI - WIND CHILL TC - TEMPERATURE IN CELSIUS VSB - VISIBILITY IN MILES HX - HEAT INDEX FAIR- INDICATES FEW OR NO CLOUDS BELOW 12,000 FT, WITH NO SIGNIFICANT WEATHER AND/OR OBSTRUCTIONS TO VISIBILITY.

USA.gov is the U.S. government's official web portal to all federal, state and local government web resources and services.